Find Starlink 32799

NORAD ID: 62847 Int'l Des: 2025-019 Owner: SPXS Country: US Constellation: starlink operational
LEOCIRCULAR

当前视图

正在加载3D地球...

About Starlink 32799

Starlink 32799 (NORAD 62847) is a starlink constellation satellite (v2 mini) launched Jan 27, 2025 by SPXS of US. It operates in LEO, CIRCULAR orbit with a mass of 730.00 kg.

关于 Starlink 32799

正在加载描述...

即将过境

Passes for default location (London). Set your location on the main map for personalized predictions.

高度历史

Loading altitude history...

两行轨道根数

1 62847U 25019U 26166.51277079 .00018057 00000-0 66391-3 0 9992
2 62847 43.0016 256.3599 0000918 265.1357 94.9389 15.27588814 77217
Epoch: Jun 15, 2026 • Age: 9 hours

当前状态

高度 493.6 km
速度 7.62 km/s
星下点 -37.87°S, 92.09°W
发射日期 Jan 27, 2025
运行时间 1.3 years
类型 internet

技术详情

分类 Payload
质量 730.00 kg
干质量 700.00 kg
总质量 730.00 kg
长度 0.30 m
直径 4.10 m
跨度 29.00 m
形状 Box + pan
制造商 SPXS
平台类型 Starlink V2M
阶段状态 In Orbit
所有者/国家 SPXS/US

Most Searched